Location: *
(42.1160°S, 166.9240°W)
Time: 08:55:20
(UTC+00:00)

Daily predictions for brighter satellites

Satellite Brightness Start Highest point End
(mag) Time Altitude Azimuth Time Altitude Azimuth Time Altitude Azimuth
Cosmos 2263 Rocket 4.1 14:54:00 24° SE 14:54:00 24° SE 14:56:21 10° SE
CZ-4C R/B 3.0 15:18:23 69° NE 15:18:49 71° ENE 15:25:54 10° SE
Cosmos 1934 Rocket 4.4 15:35:06 55° N 15:35:06 55° N 15:39:54 10° N
IDEFIX/ARIANE 42P 2.9 15:40:14 10° NNE 15:45:25 63° ESE 15:46:42 48° SSE
Cosmos 1461 4.2 15:49:22 39° SE 15:49:22 39° SE 15:52:19 10° SE
CZ-4 R/B 3.2 15:56:53 10° NE 16:00:29 30° ESE 16:04:13 10° S
Cosmos 540 Rocket 3.9 16:02:33 31° S 16:04:56 62° ESE 16:10:06 10° NNE
Ariane Rocket 3.2 16:00:09 10° NNE 16:05:14 72° ESE 16:08:37 22° S
Cosmos 1908 4.4 16:12:11 35° N 16:12:11 35° N 16:14:33 10° N
CZ-2C R/B 2.2 16:07:03 10° NNE 16:11:57 89° W 16:13:20 47° SSW
Cosmos 2221 3.2 16:15:38 41° N 16:15:38 41° N 16:18:33 10° N
Cosmos 1726 3.6 16:11:31 16° SSE 16:14:14 37° ESE 16:17:45 10° NNE
OAO 2 Rocket 4.5 16:14:55 29° NNW 16:16:14 34° N 16:20:54 10° ENE
Meteor 2-15 Rocket 4.3 16:11:11 10° NNW 16:17:20 78° W 16:23:32 10° S
Cosmos 2285 Rocket 4.3 16:13:52 10° SSW 16:20:15 67° ESE 16:26:32 10° NNE
Meteor 1-21 Rocket 4.3 16:15:32 10° N 16:21:29 85° E 16:27:30 10° S
Cosmos 44 4.1 16:21:29 10° NNW 16:26:23 54° ENE 16:31:33 10° SE
Cosmos 1153 Rocket 4.4 16:23:07 10° S 16:29:22 75° W 16:35:39 10° N
Hubble Space Telescope 3.3 16:28:54 11° NNW 16:30:17 12° N 16:31:58 10° NNE
CSL-04 Rocket 3.6 16:27:05 10° N 16:32:36 66° WNW 16:38:03 10° SSW
PAYLOAD A 4.5 16:28:11 10° NNW 16:33:18 40° W 16:33:36 40° W
USA 32 4.0 16:28:22 10° N 16:33:38 85° E 16:38:59 10° S
YAOGAN 1 3.4 16:30:23 10° NNE 16:34:37 52° ESE 16:38:55 10° S
Cosmos 2263 Rocket 3.1 16:35:44 30° SW 16:35:44 30° SW 16:40:03 10° S
MTI 3.9 16:32:16 10° SSE 16:35:38 81° ENE 16:38:57 10° N
SJ-12 3.9 16:33:30 10° N 16:37:34 56° W 16:38:19 47° WSW
SMAP 3.0 16:37:03 10° NNE 16:41:45 85° WNW 16:46:32 10° SSW
Cosmos 1605 Rocket 4.3 16:37:15 14° SSW 16:42:04 39° W 16:47:40 10° NNW
Cosmos 2061 Rocket 4.2 16:36:12 10° S 16:42:30 74° E 16:48:45 10° NNE
COSMOS 2441 4.3 16:39:42 10° N 16:44:32 66° WNW 16:49:25 10° SSW
Tiangong 2 1.1 16:46:41 62° WNW 16:47:10 88° N 16:50:28 10° E
Okean 3 Rocket 4.2 16:47:11 36° W 16:47:30 36° WSW 16:51:47 10° S
IRS-1A Rocket 4.2 16:42:14 10° NNE 16:47:55 80° WNW 16:53:50 10° SSW
SJ-7 4.3 16:44:25 10° N 16:48:25 65° W 16:51:44 15° SSW
COSMO-SKYMED 1 4.0 16:46:06 10° SSE 16:50:17 41° E 16:54:25 10° N
CZ-3 R/B 3.3 16:41:54 16° WNW 16:51:11 31° NNW 16:56:15 10° NE
CZ-2C R/B 3.7 16:47:41 10° S 16:52:30 66° WSW 16:57:12 10° NNW
Radarsat 4.5 16:47:59 10° N 16:53:12 73° WNW 16:58:30 10° SSW
Cosmos 2100 Rocket 3.9 16:48:03 10° S 16:54:17 76° W 17:00:27 10° N
Cosmos 1844 Rocket 2.6 16:49:35 10° NNW 16:55:16 86° WSW 17:01:00 10° SSE
Cosmos 1354 Rocket 4.4 16:51:38 10° NW 16:56:41 41° WSW 17:01:46 10° S
Cosmos 1484 Rocket 2.8 16:53:22 10° N 16:57:23 73° WNW 17:01:28 10° SSW
CZ-4 R/B 4.5 16:55:12 10° NNE 16:59:22 83° ESE 17:03:35 10° S
CORIOLIS 4.1 16:55:11 10° N 17:00:32 70° WNW 17:05:59 10° SSW
Cosmos 1328 3.7 16:59:49 10° N 17:03:51 83° W 17:07:58 10° S
SPOT 3 Rocket 3.7 16:59:07 10° NNE 17:04:17 76° ESE 17:09:32 10° S
Cosmos 1766 Rocket 3.8 17:00:03 10° NNW 17:04:18 46° WSW 17:08:36 10° S
Cosmos 1076 Rocket 4.3 17:00:44 10° NW 17:04:35 30° WSW 17:08:31 10° SSW
Cosmos 1515 Rocket 3.8 17:03:15 10° S 17:07:45 73° E 17:12:09 10° NNE
CZ-4C R/B 3.5 17:03:38 19° W 17:07:57 33° SW 17:14:02 10° SSE
Cosmos 1725 Rocket 4.5 17:01:50 10° S 17:08:13 66° E 17:14:31 10° NNE
Meteor 2-10 3.9 17:04:19 10° SSW 17:09:27 73° W 17:14:40 10° N
Cosmos 44 Rocket 3.4 17:04:30 10° NW 17:09:29 60° SW 17:14:36 10° SSE
Cosmos 1459 Rocket 4.1 17:06:39 10° SSW 17:12:57 59° W 17:19:12 10° N
Cosmos 2016 Rocket 4.0 17:08:28 10° S 17:14:56 80° W 17:21:20 10° N
Cosmos 1743 Rocket 3.5 17:11:09 10° N 17:15:38 79° W 17:20:09 10° S
Cosmos 1356 3.7 17:15:29 10° NNW 17:18:54 46° WSW 17:22:23 10° S
METEOR-M 4.4 17:14:36 10° NNE 17:19:58 75° ESE 17:25:24 10° S
Cosmos 2278 Rocket 2.9 17:14:45 10° N 17:20:20 61° ENE 17:25:59 10° SSE
EO 1 Del DPAF 3.9 17:17:30 10° S 17:21:03 33° WSW 17:24:33 10° NW
Shenzhou-11 Module 2.0 17:19:27 21° W 17:21:23 76° S 17:24:32 10° E
Cosmos 968 Rocket 3.4 17:16:43 10° NNW 17:21:49 67° WSW 17:27:00 10° SSE
MOS 1 4.3 17:16:36 10° N 17:22:14 67° WNW 17:27:58 10° SSW
ASTEX 1 3.4 17:17:26 10° N 17:22:20 69° W 17:27:19 10° S
IDEFIX/ARIANE 42P 4.0 17:22:12 10° NW 17:25:28 16° W 17:27:32 14° WSW
BREEZE-M DEB (TANK) 4.2 17:23:12 15° SW 17:26:05 31° S 17:35:18 10° ESE
COSMOS 2406 3.6 17:21:56 10° SW 17:27:26 46° WNW 17:32:50 10° N
Cosmos 773 Rocket 4.4 17:22:17 10° SSW 17:27:29 66° ESE 17:32:36 10° NNE
BREEZE-M DEB (TANK) 4.2 17:27:34 10° NW 17:28:15 11° NNW 17:29:03 10° NNW
BREEZE-M DEB (TANK) 4.4 17:13:23 10° NW 17:28:29 60° NNE 17:31:37 10° ESE
ATLAS 3B R/B 3.7 17:22:20 10° N 17:28:37 50° ENE 17:35:12 10° SE
Cosmos 1300 3.5 17:28:08 10° SSW 17:31:36 31° W 17:35:02 10° NNW
SL-14 R/B 4.0 17:29:11 10° NW 17:32:57 34° WSW 17:36:45 10° S
CZ-4 R/B 2.7 17:32:18 10° NW 17:35:33 22° W 17:38:53 10° SW
Cosmos 2151 2.9 17:33:50 10° NNW 17:38:04 68° W 17:42:23 10° S
SKYMED 2 3.6 17:34:01 10° S 17:38:22 59° WSW 17:42:40 10° NNW
Cosmos 1607 4.0 17:33:16 10° NW 17:39:39 77° SW 17:45:57 10° SSE
Thor Agena Rocket 3.6 17:38:14 10° SSE 17:43:36 88° WSW 17:48:50 10° NNW
Cosmos 1844 4.0 17:38:43 10° NW 17:44:19 48° WSW 17:49:59 10° SSE
Intercosmos 25 4.4 17:39:33 10° SSW 17:45:41 43° W 17:49:39 10° NNW
SL-27 R/B 2.4 17:42:17 10° SSW 17:45:56 81° WNW 17:49:27 10° NNE
SeaSat 1 2.7 17:41:40 10° SSE 17:46:30 50° WSW 17:51:16 10° NW
FREGAT/IRIS 3.2 17:45:40 10° NNE 17:48:43 64° ESE 17:51:51 10° S
Cosmos 1726 3.9 17:47:10 10° SW 17:49:09 14° W 17:51:07 10° WNW
NOAA 12 4.1 17:45:18 10° N 17:50:34 76° WNW 17:55:56 10° SSW
BREEZE-M DEB (TANK) 4.0 17:35:15 10° WSW 17:51:46 71° SSE 17:55:54 10° ENE
Meteor 1-28 Rocket 4.2 17:48:52 10° SSW 17:52:08 26° WSW 17:55:22 10° NW
ALOS 2.4 17:47:49 10° NNE 17:52:32 88° ESE 17:57:19 10° SSW
Cosmos 2058 3.1 17:49:10 10° NNW 17:53:12 50° W 17:57:19 10° S
Cosmos 2082 Rocket 3.1 17:49:19 10° SSW 17:54:57 52° ESE 18:00:29 10° NE
